FW2889 Weather Reports


time (UTC)temp
C
wind
direction
speed
KPH
gust
KPH
rain 1hr
cm
rain 24hr
cm
rain mn
cm
humidity
%
barometer
mb
20260508143041 26 0 12.9 27.4 0.00 0.00 0.00 29 993.0
20260508140121 28 0 14.5 27.4 0.00 0.00 0.00 28 993.1
20260508133042 29 0 8.0 24.1 0.00 0.00 0.00 26 992.8
20260508123041 30 0 6.4 25.7 0.00 0.00 0.00 26 993.1
20260508120101 29 0 4.8 16.1 0.00 0.00 0.00 29 993.2
20260508113101 28 0 4.8 14.5 0.00 0.00 0.00 29 993.5
20260508110041 28 0 4.8 16.1 0.00 0.00 0.00 27 993.6
20260508103144 29 0 4.8 16.1 0.00 0.00 0.00 24 993.7
20260508100041 29 0 4.8 14.5 0.00 0.00 0.00 28 993.8
20260508093040 29 0 4.8 14.5 0.00 0.00 0.00 30 993.9
20260508090121 28 0 4.8 12.9 0.00 0.00 0.00 27 993.9
20260508083040 28 0 4.8 11.3 0.00 0.00 0.00 30 994.1
20260508080040 27 0 4.8 14.5 0.00 0.00 0.00 35 994.0
20260508073102 27 0 3.2 14.5 0.00 0.00 0.00 35 994.1
20260508070041 26 68 3.2 17.7 0.00 0.00 0.00 40 993.9
20260508063041 25 90 1.6 8.0 0.00 0.00 0.00 35 993.9
20260508060042 24 0 3.2 9.7 0.00 0.00 0.00 41 993.8
20260508053040 23 90 1.6 8.0 0.00 0.00 0.00 44 993.9
20260508050040 21 0 3.2 8.0 0.00 0.00 0.00 50 993.7
20260508043100 20 0 3.2 8.0 0.00 0.00 0.00 56 993.5
20260508040041 18 0 4.8 9.7 0.00 0.00 0.00 54 993.4
20260508033042 17 0 6.4 16.1 0.00 0.00 0.00 58 993.4
20260508030042 17 0 3.2 11.3 0.00 0.00 0.00 61 993.2
20260508023042 16 0 3.2 9.7 0.00 0.00 0.00 61 992.9
20260508020142 16 45 3.2 9.7 0.00 0.00 0.00 63 992.8
20260508013042 17 0 3.2 6.4 0.00 0.00 0.00 59 992.7
20260508010042 18 0 3.2 8.0 0.00 0.00 0.00 57 992.8
20260508003042 17 113 4.8 11.3 0.00 0.00 0.00 61 992.8
20260508000042 17 113 3.2 11.3 0.00 0.00 0.00 62 992.9
20260507233041 16 90 6.4 14.5 0.00 0.00 0.00 66 992.9
20260507230045 17 113 6.4 14.5 0.00 0.00 0.00 65 993.3
20260507223041 17 113 4.8 14.5 0.00 0.00 0.00 64 993.2
20260507220041 16 113 3.2 6.4 0.00 0.00 0.00 64 993.2
20260507213041 17 113 3.2 9.7 0.00 0.00 0.00 63 992.9
20260507210041 16 113 4.8 11.3 0.00 0.00 0.00 64 993.1
20260507203042 17 113 4.8 12.9 0.00 0.00 0.00 63 993.0
20260507200142 17 113 6.4 16.1 0.00 0.00 0.00 60 992.9
20260507193042 18 113 3.2 9.7 0.00 0.00 0.00 59 992.8
20260507190202 18 0 4.8 14.5 0.00 0.00 0.00 56 992.8
20260507183042 19 0 4.8 11.3 0.00 0.00 0.00 55 992.8
20260507180042 19 113 4.8 12.9 0.00 0.00 0.00 54 992.9
20260507173041 20 90 3.2 6.4 0.00 0.00 0.00 51 992.6
20260507170042 21 113 3.2 9.7 0.00 0.00 0.00 48 992.4
20260507163042 23 113 1.6 9.7 0.00 0.00 0.00 42 992.3
20260507160042 24 0.0 3.2 0.00 0.00 0.00 34 991.9
20260507153041 25 0 8.0 27.4 0.00 0.00 0.00 32 991.9